Location: Eckley Miners' Village
(40.9930°N, 75.8630°W)
Time: 11:27:45
(UTC-04:00)

Vanguard 1 Rocket - Pass Details

Date: 16 March 2026
Orbit: 654 x 4213 km, 34.3° (Epoch: 11 April)

Event Time Altitude Azimuth Distance (km) Brightness Sun altitude
Rises 10:08:37 0° 260° (W) 3,112 9.8 30.5°
Reaches altitude 10° 10:11:09 10° 252° (WSW) 2,082 9.0 30.9°
Maximum altitude 10:15:14 36° 184° (S) 1,046 8.5 31.5°
Drops below altitude 10° 10:19:44 10° 117° (ESE) 2,305 11.0 32.2°
Sets 10:22:41 0° 109° (ESE) 3,505 11.4 32.7°
